When you browse on this site, cookies collect data to enhance your experience and personalize the content and advertising you see.
Visit our Privacy Policy to learn more. By continuing to use the site, you agree to this use of cookies and data.
  • In Slovakia
  • List of Countries
  • For 7 days
  • Water Temperature
  • Weather Map
  • Weather Widgets
  • user-avatar
    Login

    Hourly Weather Shkoder

    Today, 15 September, Sunday

    Time Temperature Precipitation Wind Pressure Humidity
    00:00 +19°C° 0 mm 3 mps 746 mmHg 67%
    01:00 +19°C° 0 mm 3 mps 746 mmHg 70%
    02:00 +19°C° 0 mm 3 mps 746 mmHg 71%
    03:00 +19°C° 0 mm 3 mps 746 mmHg 72%
    04:00 +18°C° 0 mm 3 mps 746 mmHg 72%
    05:00 +19°C° 0 mm 3 mps 746 mmHg 69%
    06:00 +20°C° 0 mm 3 mps 746 mmHg 65%
    07:00 +22°C° 0 mm 3 mps 746 mmHg 60%
    08:00 +24°C° 0 mm 3 mps 746 mmHg 54%
    09:00 +26°C° 0 mm 3 mps 746 mmHg 48%
    10:00 +28°C° 0 mm 2 mps 746 mmHg 42%
    11:00 +29°C° 0 mm 2 mps 746 mmHg 39%
    12:00 +30°C° 0 mm 2 mps 746 mmHg 35%
    13:00 +31°C° 0 mm 2 mps 745 mmHg 32%
    14:00 +31°C° 0 mm 2 mps 745 mmHg 32%
    15:00 +31°C° 0 mm 2 mps 744 mmHg 33%
    16:00 +30°C° 0 mm 2 mps 744 mmHg 33%
    17:00 +28°C° 0 mm 2 mps 744 mmHg 38%
    18:00 +26°C° 0 mm 2 mps 744 mmHg 44%
    19:00 +24°C° 0 mm 2 mps 744 mmHg 49%
    20:00 +23°C° 0 mm 2 mps 744 mmHg 50%
    21:00 +23°C° 0 mm 2 mps 744 mmHg 51%
    22:00 +21°C° 0 mm 2 mps 744 mmHg 51%
    23:00 +22°C° 0 mm 1 mps 744 mmHg 52%

    Tomorrow, 16 September, Monday

    Time Temperature Precipitation Wind Pressure Humidity
    00:00 +21°C° 0 mm 1 mps 744 mmHg 53%
    01:00 +21°C° 0 mm 1 mps 744 mmHg 54%
    02:00 +21°C° 0 mm 1 mps 743 mmHg 55%
    03:00 +20°C° 0 mm 1 mps 743 mmHg 56%
    04:00 +20°C° 0 mm 1 mps 743 mmHg 57%
    05:00 +21°C° 0 mm 1 mps 743 mmHg 55%
    06:00 +22°C° 0 mm 1 mps 743 mmHg 53%
    07:00 +23°C° 0 mm 1 mps 743 mmHg 50%
    08:00 +25°C° 0 mm 1 mps 743 mmHg 46%
    09:00 +27°C° 0 mm 1 mps 743 mmHg 41%
    10:00 +29°C° 0 mm 1 mps 742 mmHg 36%
    11:00 +30°C° 0 mm 2 mps 742 mmHg 35%
    12:00 +31°C° 0 mm 2 mps 742 mmHg 34%
    13:00 +31°C° 0 mm 3 mps 741 mmHg 33%
    14:00 +31°C° 0 mm 3 mps 741 mmHg 36%
    15:00 +30°C° 0 mm 3 mps 741 mmHg 39%
    16:00 +29°C° 0 mm 3 mps 740 mmHg 42%
    17:00 +27°C° 0 mm 2 mps 740 mmHg 50%
    18:00 +25°C° 0 mm 1 mps 741 mmHg 58%
    19:00 +22°C° 0 mm 1 mps 741 mmHg 67%
    20:00 +22°C° 0 mm 1 mps 741 mmHg 68%
    21:00 +22°C° 0 mm 1 mps 741 mmHg 68%
    22:00 +21°C° 0 mm 1 mps 741 mmHg 69%
    23:00 +21°C° 0 mm 1 mps 741 mmHg 68%

    Day after tomorrow, 17 September, Tuesday

    Time Temperature Precipitation Wind Pressure Humidity
    00:00 +21°C° 0 mm 1 mps 741 mmHg 67%
    01:00 +21°C° 0 mm 1 mps 741 mmHg 67%
    02:00 +20°C° 0 mm 1 mps 740 mmHg 67%
    03:00 +18°C° 0 mm 0 mps 740 mmHg 68%
    04:00 +17°C° 0 mm 0 mps 740 mmHg 69%
    05:00 +19°C° 0 mm 0 mps 740 mmHg 64%
    06:00 +20°C° 0 mm 0 mps 740 mmHg 60%
    07:00 +21°C° 0 mm 0 mps 740 mmHg 55%
    08:00 +25°C° 0 mm 1 mps 740 mmHg 50%
    09:00 +27°C° 0 mm 1 mps 740 mmHg 46%
    10:00 +29°C° 0 mm 2 mps 740 mmHg 41%
    11:00 +29°C° 0 mm 2 mps 740 mmHg 41%
    12:00 +30°C° 0 mm 3 mps 739 mmHg 40%
    13:00 +30°C° 0 mm 3 mps 739 mmHg 39%
    14:00 +30°C° 0 mm 3 mps 739 mmHg 42%
    15:00 +29°C° 0 mm 3 mps 738 mmHg 45%
    16:00 +28°C° 0 mm 3 mps 738 mmHg 48%
    17:00 +26°C° 0 mm 2 mps 738 mmHg 57%
    18:00 +24°C° 0 mm 1 mps 739 mmHg 67%
    19:00 +21°C° 0 mm 1 mps 739 mmHg 76%
    20:00 +21°C° 0 mm 1 mps 739 mmHg 75%
    21:00 +21°C° 0 mm 1 mps 739 mmHg 74%
    22:00 +20°C° 0 mm 1 mps 739 mmHg 73%
    23:00 +20°C° 0 mm 1 mps 739 mmHg 72%

    18 September, Wednesday

    Time Temperature Precipitation Wind Pressure Humidity
    00:00 +20°C° 0 mm 1 mps 739 mmHg 71%
    01:00 +19°C° 0 mm 1 mps 739 mmHg 70%
    02:00 +19°C° 0 mm 1 mps 739 mmHg 69%
    03:00 +19°C° 0 mm 1 mps 739 mmHg 68%
    04:00 +19°C° 0 mm 1 mps 739 mmHg 68%
    05:00 +20°C° 0 mm 1 mps 739 mmHg 63%
    06:00 +19°C° 0 mm 0 mps 739 mmHg 59%
    07:00 +21°C° 0 mm 0 mps 740 mmHg 54%
    08:00 +25°C° 0 mm 1 mps 740 mmHg 49%
    09:00 +27°C° 0 mm 1 mps 740 mmHg 43%
    10:00 +28°C° 0 mm 1 mps 740 mmHg 38%
    11:00 +29°C° 0 mm 2 mps 740 mmHg 37%
    12:00 +30°C° 0 mm 2 mps 740 mmHg 36%
    13:00 +30°C° 0 mm 2 mps 739 mmHg 35%
    14:00 +30°C° 0 mm 2 mps 739 mmHg 37%
    15:00 +29°C° 0 mm 2 mps 739 mmHg 40%
    16:00 +29°C° 0 mm 2 mps 739 mmHg 42%
    17:00 +26°C° 0 mm 2 mps 739 mmHg 49%
    18:00 +24°C° 0 mm 2 mps 739 mmHg 56%
    19:00 +22°C° 0 mm 1 mps 740 mmHg 63%
    20:00 +20°C° 0 mm 2 mps 740 mmHg 63%
    21:00 +20°C° 0 mm 2 mps 740 mmHg 63%
    22:00 +19°C° 0 mm 2 mps 740 mmHg 64%
    23:00 +19°C° 0 mm 2 mps 740 mmHg 63%

    19 September, Thursday

    Time Temperature Precipitation Wind Pressure Humidity
    00:00 +19°C° 0 mm 2 mps 740 mmHg 63%
    01:00 +18°C° 0 mm 2 mps 740 mmHg 62%
    02:00 +18°C° 0 mm 2 mps 740 mmHg 62%
    03:00 +17°C° 0 mm 2 mps 740 mmHg 62%
    04:00 +17°C° 0 mm 2 mps 740 mmHg 62%
    05:00 +18°C° 0 mm 3 mps 739 mmHg 60%
    06:00 +18°C° 0 mm 3 mps 739 mmHg 58%
    07:00 +19°C° 0 mm 3 mps 739 mmHg 56%
    08:00 +20°C° 0.1 mm 2 mps 739 mmHg 52%
    09:00 +23°C° 0.1 mm 2 mps 740 mmHg 48%
    10:00 +25°C° 0.1 mm 2 mps 740 mmHg 43%
    11:00 +25°C° 0.2 mm 2 mps 739 mmHg 43%
    12:00 +26°C° 0.2 mm 2 mps 739 mmHg 42%
    13:00 +27°C° 0.2 mm 1 mps 739 mmHg 41%
    14:00 +26°C° 0.5 mm 2 mps 739 mmHg 45%
    15:00 +25°C° 0.5 mm 2 mps 739 mmHg 49%
    16:00 +25°C° 0.5 mm 2 mps 739 mmHg 53%
    17:00 +23°C° 0.4 mm 2 mps 739 mmHg 58%
    18:00 +20°C° 0.4 mm 2 mps 739 mmHg 64%
    19:00 +18°C° 0.4 mm 3 mps 740 mmHg 70%
    20:00 +18°C° 0.7 mm 3 mps 740 mmHg 74%
    21:00 +17°C° 0.7 mm 3 mps 740 mmHg 77%
    22:00 +15°C° 0.7 mm 4 mps 740 mmHg 81%
    23:00 +15°C° 0.1 mm 4 mps 740 mmHg 81%

    20 September, Friday

    Time Temperature Precipitation Wind Pressure Humidity
    00:00 +14°C° 0.1 mm 4 mps 740 mmHg 81%
    01:00 +14°C° 0.1 mm 4 mps 740 mmHg 81%
    02:00 +13°C° 0 mm 4 mps 740 mmHg 79%
    03:00 +13°C° 0 mm 4 mps 740 mmHg 77%
    04:00 +13°C° 0 mm 4 mps 740 mmHg 75%
    05:00 +12°C° 0 mm 4 mps 741 mmHg 72%
    06:00 +12°C° 0 mm 5 mps 741 mmHg 70%
    07:00 +12°C° 0 mm 5 mps 741 mmHg 67%
    08:00 +14°C° 0 mm 4 mps 741 mmHg 60%
    09:00 +15°C° 0 mm 4 mps 742 mmHg 53%
    10:00 +18°C° 0 mm 4 mps 742 mmHg 46%
    11:00 +19°C° 0 mm 4 mps 742 mmHg 41%
    12:00 +20°C° 0 mm 4 mps 741 mmHg 37%
    13:00 +21°C° 0 mm 4 mps 741 mmHg 33%
    14:00 +21°C° 0 mm 4 mps 741 mmHg 31%
    15:00 +20°C° 0 mm 5 mps 741 mmHg 30%
    16:00 +20°C° 0 mm 5 mps 741 mmHg 29%
    17:00 +17°C° 0 mm 5 mps 742 mmHg 33%
    18:00 +15°C° 0 mm 5 mps 742 mmHg 37%
    19:00 +13°C° 0 mm 5 mps 743 mmHg 41%
    20:00 +13°C° 0 mm 5 mps 743 mmHg 44%
    21:00 +12°C° 0 mm 5 mps 744 mmHg 47%
    22:00 +10°C° 0 mm 5 mps 744 mmHg 50%
    23:00 +9°C° 0 mm 5 mps 744 mmHg 51%
    Show more